Tracking 32936 objects as of 17-Jan-2026
HD Live streaming from Space Station
objects crossing your sky now

DMSP 5D-2 F13 DEB

Track DMSP 5D-2 F13 DEB now!
10-day predictions


NORAD ID: 40399
Int'l Code: 1995-015L
Perigee: 785.4 km
Apogee: 798.5 km
Inclination: 98.7 °
Period: 100.6 minutes
Semi major axis: 7162 km
RCS: Unknown
Launch date: March 24, 1995
Source: United States (US)
Launch site: AIR FORCE WESTERN TEST RANGE (AFWTR)

Note: This is SATELLITE DEBRIS
Your satellite tracking list
Your tracking list is empty




NASA's NSSDC Master Catalog

Two Line Element Set (TLE):
1 40399U 95015L   26016.56356696  .00002189  00000-0  83100-3 0  9991
2 40399  98.7126  46.4255 0009109  53.5304 306.6718 14.32069518564741
Source of the keplerian elements: AFSPC